Lid_Strength_Index
4 5 5 5 5 5 5 5 5 5 5 5 5 5 5 5 4 4 4 4 4 4 4 4 4 4 5 7 7 4 -3 -1 -0 1 5 6 7 8 8 7 7 7 7 5 5 5 5
4 5 5 5 5 5 5 5 5 5 5 5 5 5 5 5 4 4 4 4 4 4 4 4 3 4 6 9 5 3 -0 0 1 2 5 6 7 6 7 6 6 7 6 6 5 6 5
4 5 5 5 5 5 5 5 5 5 5 5 5 5 5 4 5 4 4 4 4 4 4 3 3 4 6 7 4 4 3 1 1 2 5 6 6 6 5 7 6 5 7 6 6 6 7
5 5 5 5 5 5 5 5 6 6 5 5 5 5 5 5 5 5 4 5 5 4 3 2 2 3 7 4 3 3 3 4 3 3 4 4 5 6 7 5 5 7 7 10 7 6 6
5 5 6 6 5 5 5 5 6 6 5 5 5 5 5 5 5 5 5 5 4 3 2 2 3 5 6 1 3 2 2 5 5 3 3 5 5 7 7 7 8 8 10 10 9 6 7
5 5 6 6 6 6 5 5 5 5 5 5 5 5 5 5 5 5 6 5 5 3 2 2 2 5 4 5 4 3 3 5 6 6 6 7 7 9 8 7 11 10 10 10 10 8 7
6 6 6 6 6 6 6 6 6 6 6 6 5 6 5 6 6 6 6 7 7 7 5 5 5 5 5 4 3 4 4 5 6 6 8 7 9 11 9 7 6 7 9 9 9 7 8
6 6 6 6 6 6 6 6 6 6 6 6 6 6 6 6 6 6 7 10 9 9 11 8 8 7 5 5 7 5 3 5 7 8 9 9 11 9 8 7 7 8 9 9 8 7 8
6 6 6 6 6 6 6 6 6 6 6 6 6 6 6 7 7 7 10 9 8 8 11 9 8 8 7 6 8 6 4 5 7 8 9 10 9 9 9 8 8 8 9 9 9 8 8
6 6 6 6 6 6 6 6 6 6 6 6 6 6 6 7 9 9 9 7 7 8 11 9 8 6 6 6 7 5 4 5 7 7 9 9 8 10 9 9 8 9 7 8 9 10 12
6 6 6 6 6 6 6 6 6 6 6 6 6 7 7 7 9 10 9 7 7 8 15 8 7 4 5 6 7 6 4 5 7 8 8 9 9 10 10 9 7 8 6 7 8 9 10
6 6 6 6 6 6 6 7 7 7 7 7 7 7 7 8 9 8 7 8 8 11 15 10 6 7 7 7 7 6 6 4 5 6 8 7 7 8 8 7 7 7 8 8 8 9 13
6 6 6 7 6 6 7 7 7 7 7 7 8 8 8 8 10 8 8 9 12 15 10 10 9 8 8 8 8 7 7 8 8 10 10 8 8 7 7 8 7 8 9 12 13 14 13
6 6 7 6 7 7 6 7 7 7 7 8 9 8 8 8 7 7 10 12 16 13 11 9 8 8 9 8 8 8 8 8 6 7 9 10 11 8 7 8 9 9 8 11 15 14 12
7 6 7 7 7 7 7 7 7 7 7 8 9 9 10 9 7 8 12 16 14 12 9 9 8 10 9 9 8 8 8 8 7 7 9 10 10 8 8 7 7 9 10 7 10 11 11
7 7 7 7 7 7 7 7 7 7 7 8 10 11 11 7 7 10 13 15 14 10 9 10 11 9 10 9 9 9 9 7 7 7 5 7 10 7 8 7 8 8 7 11 10 14 15
6 6 7 7 6 7 7 7 7 7 8 8 11 14 10 6 9 11 15 15 13 11 9 10 10 10 9 10 9 10 9 8 7 7 6 7 8 9 8 9 10 9 10 10 9 10 13
6 6 7 7 7 7 7 7 7 8 8 9 12 17 9 7 11 12 14 13 12 11 10 10 9 9 9 9 9 10 10 8 7 7 9 7 8 10 9 7 7 7 8 8 11 12 10
7 7 7 7 7 7 6 6 6 7 7 9 14 13 9 9 14 13 11 11 10 10 10 9 10 9 8 9 11 9 8 7 7 7 7 8 9 11 10 8 7 8 8 8 8 8 11
7 6 6 5 5 5 4 3 3 4 5 7 12 15 11 10 11 12 12 12 12 9 9 8 9 8 8 8 7 8 8 7 7 7 4 6 8 10 12 10 8 9 8 8 8 10 10
5 4 3 2 2 3 2 1 2 3 4 6 10 12 10 12 11 11 12 12 13 12 9 8 8 8 8 9 8 9 7 7 7 5 6 7 10 9 8 8 8 8 8 8 9 8 10
2 1 1 1 1 0 0 0 1 2 3 6 10 10 9 10 9 11 11 12 12 11 10 10 9 7 7 9 8 9 7 7 8 7 7 9 10 10 10 9 8 9 8 8 8 8 8
1 1 1 0 -0 -1 -1 -1 -0 1 3 6 6 6 9 10 10 10 11 11 11 10 9 8 8 9 9 7 6 6 5 6 6 8 9 9 9 11 12 9 9 10 8 8 7 7 7
0 -0 -0 -1 -1 -1 -1 -1 -1 -1 1 2 5 6 10 13 11 10 9 9 10 10 11 9 8 9 7 5 5 6 7 6 6 7 7 10 11 10 12 10 14 9 6 6 7 7 6
-0 -1 -1 -1 -1 -1 -1 -1 -1 -1 -0 1 2 4 7 12 9 10 9 9 8 8 10 9 8 6 5 7 8 10 9 9 8 7 8 7 10 13 13 12 10 9 8 7 8 8 5
-1 -1 -1 -1 -1 -1 -1 -1 -1 -1 -1 0 2 2 5 10 10 8 8 8 9 9 10 9 6 6 6 8 9 13 13 10 12 11 8 8 9 11 12 15 14 11 8 7 7 10 7
-1 -1 -1 -1 -1 -1 -1 -1 -1 -1 -1 0 1 1 4 8 7 6 9 9 7 8 9 9 8 8 6 10 11 12 12 9 12 12 12 13 12 13 14 15 11 9 7 6 11 9 7
-1 -1 -1 -1 -1 -1 -1 -1 -1 -1 -1 0 1 1 3 7 6 6 6 7 7 8 10 9 9 7 9 12 12 11 12 10 11 10 11 12 14 16 14 15 15 7 8 10 8 6 6
-1 -1 -1 -1 -1 -1 -1 -1 -1 -1 -1 -1 3 1 1 5 6 4 4 4 5 6 7 8 9 10 8 10 10 11 12 10 12 13 8 13 11 14 12 12 7 6 7 6 5 6 5